Weather History for Glasgow, KY

Change the Weather History Date:

Saturday, October 5, 2013

  Actual Average Record
Temperature  
Mean Temperature 76 °F -  
Max Temperature 86 °F 74 °F 89 °F (1954)
Min Temperature 66 °F 48 °F 31 °F (1968)
Cooling Degree Days 11    
Growing Degree Days 26 (Base 50)    
Moisture  
Dew Point 66 °F    
Average Humidity 73    
Maximum Humidity 100    
Minimum Humidity 50    
Precipitation  
Precipitation 0.00 in - - ()
Sea Level Pressure  
Sea Level Pressure 30.03 in    
Wind  
Wind Speed 3 mph (South)    
Max Wind Speed 13 mph    
Max Gust Speed 20 mph    
Visibility 10 miles    
Events      
Averages and records for this station are not official NWS values.
T = Trace of Precipitation, MM = Missing Value Source: NWS Daily Summary

Daily Weather History Graph

Daily Weather History Graph

Search for Another Location

Airport:

Trip Planner

Search our weather history database for the weather conditions in past years. The results will help you decide how hot, cold, wet, or windy it might be!

Date:

Astronomy

Oct. 05, 2013 Rise Set
Actual Time 6:42 AM CDT 6:20 PM CDT
Civil Twilight 6:16 AM CDT 6:46 PM CDT
Nautical Twilight 5:46 AM CDT 7:16 PM CDT
Astronomical Twilight 5:16 AM CDT 7:46 PM CDT
Moon 7:19 AM CDT (10/5) 6:41 PM CDT (10/5)
Length of Visible Light 12h 29m
Length of Day
11h 38m
New Moon, 1% of the Moon is Illuminated
Oct 5
New Moon
Oct 11
First Quarter
Oct 18
Full
Oct 26
Last Quarter
Nov 3
New

Hourly Weather History & Observations

Time (CDT) Temp. Heat Index Dew Point Humidity Pressure Visibility Wind Dir Wind Speed Gust Speed Precip Events Conditions
12:15 AM 71.1 °F - 65.8 °F 84% 30.08 in 10.0 mi Calm Calm - N/A   Clear
12:35 AM 70.7 °F - 65.7 °F 84% 30.08 in 10.0 mi Calm Calm - N/A   Scattered Clouds
12:55 AM 70.5 °F - 65.7 °F 85% 30.08 in 10.0 mi Calm Calm - N/A   Scattered Clouds
1:15 AM 69.4 °F - 66.7 °F 91% 30.09 in 7.0 mi Calm Calm - N/A   Clear
1:35 AM 68.9 °F - 68.9 °F 100% 30.09 in 7.0 mi Calm Calm - N/A   Clear
1:55 AM 68.9 °F - 68.7 °F 99% 30.09 in 7.0 mi Calm Calm - N/A   Clear
2:15 AM 68.4 °F - 68.0 °F 99% 30.09 in 10.0 mi Calm Calm - N/A   Clear
2:35 AM 68.2 °F - 68.2 °F 100% 30.08 in 10.0 mi SSW 3.5 mph - N/A   Clear
2:55 AM 68.2 °F - 68.0 °F 99% 30.08 in 10.0 mi Calm Calm - N/A   Clear
3:15 AM 68.7 °F - 67.8 °F 97% 30.08 in 10.0 mi South 4.6 mph - N/A   Mostly Cloudy
3:35 AM 69.1 °F - 67.8 °F 96% 30.08 in 10.0 mi Calm Calm - N/A   Mostly Cloudy
3:55 AM 69.1 °F - 67.6 °F 95% 30.08 in 10.0 mi Calm Calm - N/A   Scattered Clouds
4:15 AM 68.9 °F - 67.5 °F 95% 30.08 in 10.0 mi Calm Calm - N/A   Mostly Cloudy
4:35 AM 68.9 °F - 67.5 °F 95% 30.08 in 10.0 mi Calm Calm - N/A   Scattered Clouds
4:55 AM 68.7 °F - 67.5 °F 96% 30.08 in 10.0 mi Calm Calm - N/A   Scattered Clouds
5:15 AM 68.2 °F - 67.3 °F 97% 30.08 in 10.0 mi Calm Calm - N/A   Clear
5:35 AM 67.1 °F - 67.1 °F 100% 30.09 in 10.0 mi Calm Calm - N/A   Scattered Clouds
5:55 AM 66.7 °F - 66.7 °F 100% 30.08 in 10.0 mi Calm Calm - N/A   Scattered Clouds
6:15 AM 67.1 °F - 67.1 °F 100% 30.08 in 7.0 mi Calm Calm - N/A   Scattered Clouds
6:35 AM 67.3 °F - 66.4 °F 97% 30.08 in 10.0 mi Calm Calm - N/A   Clear
6:55 AM 67.1 °F - 65.8 °F 96% 30.08 in 7.0 mi Calm Calm - N/A   Clear
7:15 AM 67.3 °F - 66.4 °F 97% 30.07 in 10.0 mi Calm Calm - N/A   Clear
7:35 AM 69.1 °F - 64.8 °F 86% 30.08 in 10.0 mi Calm Calm - N/A   Clear
7:55 AM 70.5 °F - 64.8 °F 82% 30.08 in 10.0 mi South 3.5 mph - N/A   Clear
8:15 AM 72.0 °F - 64.6 °F 77% 30.08 in 10.0 mi South 4.6 mph - N/A   Scattered Clouds
8:35 AM 73.4 °F - 64.6 °F 74% 30.09 in 10.0 mi South 6.9 mph - N/A   Clear
8:55 AM 74.5 °F - 64.9 °F 72% 30.08 in 10.0 mi South 6.9 mph - N/A   Clear
9:15 AM 74.8 °F - 65.3 °F 72% 30.08 in 10.0 mi South 6.9 mph - N/A   Clear
9:35 AM 76.8 °F - 65.8 °F 69% 30.08 in 10.0 mi South 6.9 mph - N/A   Clear
9:55 AM 78.6 °F - 65.8 °F 65% 30.08 in 10.0 mi SSW 9.2 mph - N/A   Clear
10:15 AM 79.7 °F - 65.8 °F 62% 30.09 in 10.0 mi SSW 11.5 mph 17.3 mph N/A   Scattered Clouds
10:35 AM 80.6 °F 82.5 °F 65.5 °F 60% 30.08 in 10.0 mi SSW 6.9 mph - N/A   Mostly Cloudy
10:55 AM 81.7 °F 83.8 °F 66.0 °F 59% 30.08 in 10.0 mi South 8.1 mph - N/A   Overcast
11:15 AM 81.1 °F 83.4 °F 66.4 °F 61% 30.08 in 10.0 mi SSW 8.1 mph - N/A   Mostly Cloudy
11:35 AM 81.9 °F 84.1 °F 66.2 °F 59% 30.07 in 10.0 mi SSW 5.8 mph - N/A   Mostly Cloudy
11:55 AM 83.5 °F 86.0 °F 66.7 °F 57% 30.07 in 10.0 mi South 9.2 mph - N/A   Overcast
12:15 PM 83.7 °F 86.0 °F 66.6 °F 56% 30.06 in 10.0 mi SW 10.4 mph - N/A   Mostly Cloudy
12:35 PM 84.0 °F 86.5 °F 66.7 °F 56% 30.05 in 10.0 mi SSW 10.4 mph - N/A   Scattered Clouds
12:55 PM 84.2 °F 86.8 °F 66.7 °F 56% 30.04 in 10.0 mi SW 11.5 mph - N/A   Scattered Clouds
1:15 PM 84.6 °F 87.1 °F 66.6 °F 55% 30.03 in 10.0 mi SW 12.7 mph 19.6 mph N/A   Scattered Clouds
1:35 PM 85.1 °F 87.7 °F 66.7 °F 54% 30.02 in 10.0 mi SW 10.4 mph 17.3 mph N/A   Scattered Clouds
1:55 PM 84.2 °F 86.6 °F 66.4 °F 55% 30.01 in 10.0 mi SW 10.4 mph - N/A   Mostly Cloudy
2:15 PM 86.2 °F 88.4 °F 66.2 °F 51% 30.00 in 10.0 mi SSW 8.1 mph 16.1 mph N/A   Scattered Clouds
2:35 PM 86.4 °F 88.7 °F 66.0 °F 51% 29.99 in 10.0 mi South 6.9 mph - N/A   Scattered Clouds
2:55 PM 86.4 °F 88.7 °F 66.4 °F 51% 29.98 in 10.0 mi South 8.1 mph - N/A   Mostly Cloudy
3:15 PM 86.5 °F 89.0 °F 66.2 °F 51% 29.98 in 10.0 mi SSW 8.1 mph - N/A   Mostly Cloudy
3:35 PM 86.9 °F 89.3 °F 66.0 °F 50% 29.97 in 10.0 mi SSW 10.4 mph - N/A   Mostly Cloudy
3:55 PM 86.5 °F 89.0 °F 66.4 °F 51% 29.97 in 10.0 mi South 8.1 mph - N/A   Scattered Clouds
4:15 PM 85.3 °F 87.6 °F 66.4 °F 53% 29.96 in 10.0 mi SSW 5.8 mph - N/A   Scattered Clouds
4:35 PM 85.1 °F 87.4 °F 66.0 °F 53% 29.96 in 10.0 mi SSW 8.1 mph - N/A   Scattered Clouds
4:55 PM 85.1 °F 87.1 °F 65.7 °F 52% 29.96 in 10.0 mi South 5.8 mph - N/A   Scattered Clouds
5:15 PM 84.6 °F 86.6 °F 65.7 °F 53% 29.97 in 10.0 mi South 6.9 mph - N/A   Scattered Clouds
5:35 PM 82.8 °F 84.7 °F 65.8 °F 56% 29.97 in 10.0 mi South 5.8 mph - N/A   Clear
5:55 PM 81.0 °F 83.0 °F 66.0 °F 60% 29.97 in 10.0 mi South 3.5 mph - N/A   Scattered Clouds
6:15 PM 80.4 °F 82.6 °F 66.2 °F 62% 29.96 in 10.0 mi Calm Calm - N/A   Mostly Cloudy
6:35 PM 80.1 °F 82.1 °F 66.2 °F 62% 29.96 in 10.0 mi Calm Calm - N/A   Mostly Cloudy
6:55 PM 79.0 °F - 66.2 °F 65% 29.96 in 10.0 mi SSE 3.5 mph - N/A   Scattered Clouds
7:15 PM 78.4 °F - 66.2 °F 66% 29.96 in 10.0 mi Calm Calm - N/A   Scattered Clouds
7:35 PM 77.9 °F - 65.8 °F 66% 29.96 in 10.0 mi SSE 3.5 mph - N/A   Scattered Clouds
7:55 PM 77.4 °F - 66.0 °F 68% 29.96 in 10.0 mi SE 3.5 mph - N/A   Scattered Clouds
8:15 PM 77.0 °F - 65.8 °F 68% 29.96 in 10.0 mi SSE 3.5 mph - N/A   Scattered Clouds
8:35 PM 76.6 °F - 65.8 °F 69% 29.96 in 10.0 mi SSE 4.6 mph - N/A   Scattered Clouds
8:55 PM 76.3 °F - 65.7 °F 70% 29.96 in 10.0 mi South 3.5 mph - N/A   Clear
9:15 PM 76.1 °F - 65.7 °F 70% 29.96 in 10.0 mi SSE 4.6 mph - N/A   Clear
9:35 PM 75.4 °F - 65.7 °F 72% 29.96 in 10.0 mi South 5.8 mph - N/A   Clear
9:55 PM 74.8 °F - 65.7 °F 73% 29.95 in 10.0 mi South 5.8 mph - N/A   Clear
10:15 PM 74.5 °F - 65.7 °F 74% 29.95 in 10.0 mi South 5.8 mph - N/A   Clear
10:35 PM 74.3 °F - 65.7 °F 74% 29.95 in 10.0 mi South 5.8 mph - N/A   Clear
10:55 PM 74.3 °F - 65.8 °F 75% 29.95 in 10.0 mi South 5.8 mph - N/A   Clear
11:15 PM 73.9 °F - 65.7 °F 75% 29.94 in 10.0 mi South 5.8 mph - N/A   Clear
11:35 PM 73.8 °F - 65.7 °F 76% 29.94 in 10.0 mi South 6.9 mph - N/A   Clear
11:55 PM 73.6 °F - 65.5 °F 76% 29.93 in 10.0 mi South 5.8 mph - N/A   Scattered Clouds